Wind_Speed
42 42 41 39 37 36 35 35 35 35 33 30 27 25 25 25 25 24 24 24 24 23 22 21 20 20 19 19 18 18 18 18 18 18 19 19 20 20 19 19 18 17 17 17 17 16 16 16 15 15 15 15 17 18 19 20 21 21 21 21 21 20 20 19 18 17 15 14 12 11 11 11 10 9 8 8 7 7 7 6 6 6 6 6 6 7
40 39 36 34 33 33 34 34 34 33 31 28 26 25 26 26 25 24 24 24 23 23 22 21 20 20 19 19 19 18 18 18 18 18 19 19 20 20 20 19 18 18 18 17 17 16 16 15 15 15 15 16 17 18 19 20 20 20 20 20 20 19 19 18 17 16 15 13 12 11 11 10 10 9 8 8 7 7 7 7 6 6 6 6 6 7
38 34 31 29 29 31 32 32 32 30 28 26 25 26 26 26 25 24 24 24 23 22 22 21 20 20 20 19 19 19 19 18 18 18 19 19 20 20 20 19 19 18 18 18 17 17 16 16 15 16 16 17 17 18 18 19 19 19 19 19 19 18 18 17 17 16 14 13 11 11 10 10 9 9 8 8 8 8 7 6 6 6 6 6 7 7
35 30 26 25 26 28 30 30 29 28 26 26 26 26 26 26 25 25 24 23 23 22 21 21 20 20 20 20 20 19 19 19 19 19 19 19 20 20 20 20 19 19 19 18 17 17 16 16 16 16 17 17 17 18 18 18 19 19 18 18 18 18 17 17 16 15 14 12 11 10 10 10 9 9 9 8 8 8 7 6 6 6 6 6 7 7
33 26 23 23 24 26 27 27 27 26 26 26 26 26 26 26 25 25 24 23 22 21 21 21 20 20 20 20 20 20 19 19 19 19 19 19 20 20 20 20 20 20 19 18 18 17 16 16 17 17 17 17 17 18 18 18 18 18 18 17 17 17 16 16 15 14 13 12 11 10 10 10 9 9 9 9 8 7 7 6 6 6 7 7 7 7
32 25 22 22 23 24 25 25 26 26 26 26 26 26 26 26 26 25 24 23 22 21 21 20 20 21 21 21 20 20 20 19 19 19 19 19 19 20 20 20 20 20 20 18 17 17 17 17 17 17 17 17 17 17 17 17 17 17 17 17 17 16 16 15 14 13 12 11 10 10 10 10 10 9 9 9 8 7 7 7 7 7 7 7 7 6
32 26 22 22 23 23 24 25 25 26 26 26 26 26 26 26 26 25 23 22 21 21 21 21 21 21 21 21 21 20 20 20 19 19 19 19 19 20 20 21 21 20 20 19 18 17 17 17 17 18 18 18 17 17 17 17 17 17 17 16 16 15 15 14 14 13 12 11 10 10 10 10 10 9 9 9 8 7 7 7 7 7 7 7 7 6
32 26 24 23 23 23 24 25 25 26 26 26 26 26 26 26 25 24 23 22 21 21 21 21 21 21 21 21 21 21 20 20 20 20 19 19 19 20 20 21 21 21 20 19 18 17 17 18 18 18 18 18 17 17 17 17 17 17 16 16 15 15 14 14 13 12 11 10 10 10 10 10 10 9 9 9 8 8 7 7 7 7 7 7 7 7
32 27 25 24 23 24 24 25 25 25 25 26 26 26 26 26 25 24 23 22 21 21 21 21 22 22 22 22 21 21 20 20 20 20 20 20 20 20 20 21 21 21 20 19 18 18 18 18 18 18 18 18 17 17 17 17 17 16 16 15 15 14 13 13 12 11 11 10 10 10 10 10 10 9 9 9 8 8 8 7 7 7 7 7 7 7
32 28 25 24 24 25 25 25 25 25 25 25 26 26 26 25 24 23 23 22 22 22 22 22 22 22 22 22 21 21 21 20 20 20 20 20 20 20 20 21 21 20 20 19 18 18 18 18 19 19 18 18 18 17 17 17 16 16 16 15 14 13 13 12 12 11 11 10 10 11 10 10 10 9 9 9 8 8 8 8 8 8 7 7 7 7
33 29 26 25 25 26 25 25 24 24 25 25 25 25 25 24 23 23 22 22 22 23 23 23 23 23 23 22 22 21 21 21 21 21 20 20 20 20 20 21 21 20 20 19 19 18 19 19 19 19 18 18 18 17 17 17 16 16 15 14 14 13 12 12 12 11 11 11 11 11 11 10 10 9 9 9 8 8 8 8 8 8 8 8 8 7
32 28 26 26 26 26 25 24 24 24 24 25 25 24 23 23 22 22 23 23 23 23 23 23 23 23 23 23 22 22 21 21 21 21 21 21 20 20 20 21 21 21 20 20 19 19 19 19 19 19 18 18 18 17 17 17 16 16 15 14 13 13 12 12 11 11 11 11 11 11 11 10 10 9 9 9 9 8 8 8 8 8 8 8 8 7
31 27 26 26 25 24 23 23 23 23 24 24 24 23 22 22 22 23 23 24 24 24 24 24 24 24 24 24 23 22 22 22 22 22 21 21 21 20 21 21 21 21 20 20 20 19 19 19 19 19 19 18 18 17 17 17 16 16 15 14 13 12 12 12 12 12 11 11 11 11 11 10 10 9 9 9 9 9 9 8 8 8 8 8 8 8
29 26 25 24 23 22 21 21 22 23 23 23 22 22 22 23 23 23 24 24 24 24 24 25 25 25 25 25 24 23 22 22 22 22 22 21 21 21 21 21 21 21 21 20 20 20 19 19 19 19 19 18 18 17 17 17 16 16 15 14 13 13 12 12 12 12 12 12 12 11 11 10 10 10 10 9 9 9 9 9 9 9 8 8 8 8
27 25 24 22 20 19 20 21 22 22 22 22 22 22 23 23 23 24 24 24 24 25 25 25 26 26 26 25 25 24 23 23 22 22 22 21 21 21 22 22 22 21 21 21 20 20 20 20 19 19 19 18 18 17 17 17 16 16 15 14 14 13 12 12 12 12 12 12 12 11 11 11 10 10 10 10 9 9 9 9 9 9 9 8 8 8
26 24 22 19 18 19 20 21 22 22 22 22 22 22 23 23 23 24 24 25 25 25 26 26 27 27 26 26 25 25 24 23 23 22 22 22 22 22 22 22 22 22 21 21 21 20 20 20 20 19 19 18 18 17 17 17 16 16 15 15 14 13 13 13 13 13 13 12 12 12 11 11 11 10 10 10 10 10 9 9 9 9 9 9 8 8
26 24 20 18 18 19 20 21 22 22 22 22 22 22 22 23 23 24 25 25 26 26 27 27 27 27 27 27 26 25 24 24 24 23 23 23 22 23 23 23 22 22 21 21 21 20 20 20 20 20 19 19 18 18 17 17 17 16 16 15 14 14 13 13 13 13 13 12 12 12 11 11 11 11 11 10 10 10 10 9 9 9 9 9 9 8
25 22 20 18 19 20 21 21 22 21 21 21 21 22 22 23 24 24 25 25 26 27 27 28 28 28 28 27 26 25 25 24 24 24 24 23 23 23 23 23 22 22 21 21 21 21 20 20 20 20 19 19 18 18 17 17 17 16 16 15 15 14 14 14 14 13 13 13 12 12 12 12 11 11 11 11 10 10 10 9 9 9 9 9 9 9
23 21 20 19 20 21 21 21 21 21 20 21 21 22 23 23 24 25 25 26 26 27 28 28 29 29 28 28 27 26 25 25 25 25 24 24 23 23 23 23 23 22 21 21 21 21 20 20 20 20 20 19 18 18 17 17 17 17 16 16 15 14 14 14 14 14 13 13 13 13 12 12 12 11 11 11 10 10 10 10 10 9 9 9 9 9
22 21 20 20 21 21 21 20 20 20 20 21 22 22 23 24 24 25 25 26 27 27 28 29 29 29 29 28 27 27 26 26 26 25 25 24 24 24 24 23 23 22 21 21 21 21 21 20 20 20 20 19 19 18 18 17 17 17 16 16 15 15 15 15 14 14 14 14 13 13 13 12 12 12 11 11 11 10 10 10 10 10 10 10 10 10
22 21 21 21 20 20 20 19 20 20 21 22 22 23 24 24 25 26 26 26 27 28 29 29 30 30 29 29 28 27 26 26 26 26 25 25 24 24 24 23 23 22 22 21 21 21 21 20 20 20 20 19 19 18 18 18 17 17 17 16 16 15 15 15 15 15 14 14 14 13 13 12 12 12 11 11 11 11 10 10 10 10 10 10 10 10
22 21 21 21 20 20 20 20 21 21 22 23 23 23 24 25 26 26 27 27 28 28 29 29 30 30 30 29 28 27 27 27 26 26 25 25 24 24 24 23 23 22 22 22 21 21 21 21 20 20 20 19 19 18 18 18 18 17 17 17 16 16 16 16 15 15 14 14 14 14 13 13 12 12 12 11 11 11 11 11 11 11 10 10 11 11
22 21 20 20 20 20 21 21 22 22 23 23 24 24 25 26 26 27 27 28 28 29 29 29 30 30 30 29 28 28 27 27 26 26 26 24 24 23 23 23 23 22 22 22 22 22 21 21 21 20 20 20 19 19 18 18 18 18 17 17 17 16 16 16 16 15 15 14 14 14 13 13 12 12 12 12 11 11 11 11 11 11 11 11 11 11
21 20 20 20 21 21 22 22 23 23 23 24 24 25 26 26 27 27 28 28 28 29 29 29 30 30 30 29 29 28 27 27 26 26 25 24 23 23 24 24 23 23 22 22 22 22 21 21 21 21 20 20 19 19 19 18 18 18 18 17 17 17 17 16 16 15 15 15 14 14 13 13 12 12 12 12 12 12 12 12 11 11 11 11 12 12
20 20 20 21 21 22 23 23 23 23 24 24 25 25 26 27 27 28 28 28 29 29 29 30 30 30 29 29 28 28 27 27 26 26 25 24 23 23 24 24 23 23 23 23 22 22 21 21 21 21 20 20 19 19 19 19 19 18 18 18 17 17 17 17 16 16 15 15 15 14 13 13 13 13 12 12 12 12 12 12 12 12 12 12 12 12
20 20 21 22 23 23 24 24 24 24 24 24 25 26 26 27 28 28 28 29 29 29 30 30 29 29 29 29 28 27 27 26 26 26 25 24 24 24 24 24 24 23 23 23 22 22 21 21 21 21 21 20 20 19 19 19 19 19 18 18 18 18 17 17 16 16 16 15 15 14 14 13 13 13 13 13 13 13 12 12 12 12 12 12 13 13
21 21 22 23 24 24 24 24 24 24 24 25 25 26 27 27 28 28 29 29 29 29 30 29 29 29 29 28 28 27 27 27 26 26 25 25 24 24 24 24 24 24 23 23 22 22 22 21 21 21 21 20 20 20 20 20 19 19 19 18 18 18 17 17 17 16 16 15 15 14 14 14 13 13 13 13 13 13 13 13 13 13 13 13 13 13
22 23 23 24 25 25 25 25 24 24 25 25 26 26 27 28 28 29 29 29 29 29 29 29 29 28 28 28 28 27 27 27 26 26 25 25 24 24 24 24 24 24 23 23 22 22 22 21 21 21 21 20 20 20 20 20 20 19 19 19 18 18 18 17 17 17 16 16 15 15 14 14 14 14 14 14 13 13 13 13 13 13 13 13 13 13
24 24 24 25 25 25 25 25 25 25 25 26 26 27 27 28 28 28 29 29 29 29 29 29 28 28 28 28 28 28 28 27 26 26 26 25 24 24 24 24 24 24 23 23 22 22 22 21 21 21 21 21 20 20 20 20 20 20 19 19 19 18 18 18 17 17 16 16 16 15 15 14 14 14 14 14 14 14 14 14 14 14 14 14 14 13
25 25 25 25 25 25 25 25 25 25 26 26 27 27 28 28 28 28 29 29 29 29 29 28 28 28 28 28 28 28 28 27 26 26 25 25 24 24 24 24 24 24 23 23 23 22 21 21 21 21 21 21 21 21 21 21 20 20 20 19 19 19 18 18 18 17 17 16 16 15 15 15 15 14 14 14 14 14 14 14 14 14 14 14 14 14
25 25 25 26 25 25 25 25 26 26 26 27 27 28 28 28 28 28 28 28 28 28 28 28 27 27 27 28 28 27 26 26 25 25 25 25 24 24 24 24 24 24 23 23 23 22 22 21 21 21 21 21 21 21 21 21 21 20 20 20 19 19 19 18 18 18 17 17 16 16 15 15 15 15 15 14 14 14 14 14 14 14 14 14 14 14
26 26 26 26 26 26 26 26 26 26 27 27 27 28 28 28 28 28 28 27 28 28 28 27 27 27 27 27 27 26 25 25 26 26 26 25 25 25 25 25 24 24 23 23 23 22 22 22 22 22 21 21 21 21 21 21 21 21 20 20 20 19 19 19 18 18 17 17 16 16 15 15 15 15 15 14 14 14 14 14 14 14 14 14 14 13
26 26 26 26 26 26 26 26 26 26 27 27 27 28 28 27 27 27 27 27 27 27 27 26 26 26 26 26 26 26 25 26 26 26 26 26 25 25 25 25 25 24 24 23 23 22 22 22 22 22 22 22 22 22 22 21 21 21 21 20 20 20 19 19 18 18 17 17 16 16 16 15 15 15 15 14 14 14 14 14 14 14 14 14 14 13
26 26 26 26 26 26 26 26 26 26 27 27 27 27 27 27 27 26 26 26 26 26 25 25 25 24 25 25 26 26 26 27 27 26 26 26 25 25 25 25 24 24 24 23 23 22 22 22 22 22 22 22 22 22 22 22 21 21 21 20 20 20 19 19 19 18 17 17 16 16 16 15 15 15 15 14 14 14 14 14 14 14 14 14 14 13
26 26 26 26 26 26 26 26 26 26 27 27 27 27 26 26 26 25 25 25 25 25 24 24 23 23 24 25 25 26 26 27 27 26 26 26 25 25 25 24 24 24 24 23 23 22 22 23 23 23 22 22 22 22 22 22 21 21 21 21 20 20 19 19 18 18 17 17 16 16 16 15 15 15 15 15 14 14 14 14 14 14 14 14 13 13
27 27 26 26 26 26 26 26 26 26 26 26 26 26 26 25 25 25 24 24 24 23 23 22 22 23 23 24 25 26 27 27 27 26 26 26 25 25 25 24 24 24 23 23 23 22 23 23 23 23 23 22 22 22 22 22 21 21 21 20 20 20 19 19 18 18 17 17 16 16 16 15 15 15 15 15 15 15 14 14 14 14 14 13 13 13
27 27 26 26 26 26 26 26 26 26 26 26 26 26 25 25 24 24 23 23 22 22 21 21 21 22 23 24 25 26 26 26 26 26 26 26 25 25 24 24 24 24 23 23 23 23 23 24 24 23 23 22 22 22 22 22 21 21 21 20 20 19 19 19 18 18 17 17 16 16 16 16 15 15 15 15 15 15 14 14 14 14 13 13 13 13
27 27 26 26 26 26 26 26 26 26 26 26 25 25 24 24 23 23 22 22 21 20 20 20 21 22 23 23 24 25 26 26 25 25 25 25 25 25 24 24 24 23 23 23 23 24 24 24 24 23 22 22 22 22 22 22 21 21 21 20 20 19 19 19 18 17 17 17 16 16 16 16 16 15 15 15 15 14 14 14 14 14 13 13 13 13
27 27 26 26 26 26 26 26 26 26 26 25 25 24 23 23 22 22 21 20 20 19 19 19 20 21 22 23 24 25 25 25 25 25 25 25 25 24 24 24 23 23 23 24 24 24 24 24 24 23 23 23 23 23 22 22 21 21 21 20 20 19 19 19 18 18 17 17 17 16 16 16 16 15 15 15 14 14 14 14 14 13 13 13 13 13
27 27 27 26 26 26 26 26 26 26 25 25 24 23 23 22 21 21 20 20 19 19 18 19 20 21 22 23 24 25 25 25 25 25 25 25 25 24 24 24 23 24 24 24 24 24 24 24 24 24 23 23 23 23 22 22 22 21 21 20 20 19 19 19 18 18 17 17 17 16 16 16 15 15 15 14 14 14 14 14 14 14 13 13 13 13
28 27 27 27 26 26 26 26 26 25 25 24 23 22 22 21 21 20 20 19 18 18 18 19 20 21 23 23 24 25 25 25 25 25 25 25 25 24 24 24 24 24 24 24 24 24 24 24 24 24 24 23 23 23 22 22 22 21 21 20 20 20 19 19 18 18 17 17 16 16 16 15 15 15 15 14 14 14 14 14 14 14 14 14 13 13
28 28 27 27 26 26 26 26 26 25 24 23 23 22 21 21 20 20 19 18 18 18 18 19 21 22 23 23 24 24 25 25 25 25 25 25 25 24 24 24 24 24 24 24 24 24 24 24 24 24 23 23 23 22 22 22 21 21 20 20 20 20 19 19 18 18 17 17 16 16 16 15 15 15 15 14 14 14 14 14 14 14 14 14 14 14
29 28 27 27 26 26 26 26 26 25 24 23 22 21 21 20 20 19 19 18 18 18 18 19 20 22 23 23 24 24 25 25 25 25 25 25 25 24 24 24 24 24 24 24 24 24 24 24 24 24 23 23 23 22 22 22 21 21 21 20 20 19 19 18 18 18 17 17 16 16 16 15 15 15 15 15 15 15 15 15 15 15 15 14 14 14
29 28 28 27 27 26 26 26 25 24 23 22 22 21 21 20 20 19 18 18 17 18 18 19 20 21 22 23 24 24 24 25 25 25 25 25 25 25 24 24 24 24 25 25 25 24 24 24 24 23 23 23 23 22 22 21 21 21 21 20 20 19 18 18 18 18 17 17 16 16 16 15 15 15 15 15 15 15 15 15 15 15 15 15 15 15
29 29 28 27 27 26 26 26 25 24 23 22 22 21 21 20 20 19 18 18 18 18 18 19 20 21 22 23 23 24 24 24 24 25 25 25 25 25 25 24 25 24 25 25 25 25 24 24 24 23 23 23 23 22 22 21 21 21 20 20 19 19 19 18 18 18 17 17 16 16 16 15 15 15 15 15 15 15 15 15 15 15 16 16 16 16
30 29 28 27 27 26 26 26 25 24 23 22 21 21 21 20 20 19 18 18 18 18 18 19 20 21 22 23 23 24 24 24 24 24 25 25 25 25 25 25 25 25 25 25 25 24 24 24 24 24 23 23 23 22 22 21 21 21 20 20 19 19 19 18 18 17 17 17 16 16 15 15 15 15 15 15 15 15 15 15 16 16 16 16 16 17
30 29 29 28 27 27 26 25 25 24 23 22 21 21 21 20 20 19 19 18 18 18 19 19 20 21 22 23 24 24 24 24 24 25 25 25 25 25 25 25 24 24 24 24 24 24 24 24 24 24 23 23 23 22 22 21 21 20 20 19 19 19 18 18 18 17 17 16 16 16 15 15 15 15 15 15 15 15 16 16 16 16 16 17 17 17
31 30 29 29 28 27 26 25 24 23 23 22 22 21 21 20 20 19 19 19 18 19 19 20 21 22 22 23 24 24 24 25 25 25 26 26 26 25 25 25 24 24 24 24 24 24 24 24 24 23 23 23 22 22 22 21 21 20 20 19 19 19 18 18 18 17 17 16 16 16 16 15 15 15 15 15 15 16 16 16 16 16 17 17 17 18
31 31 30 29 28 27 26 25 24 23 23 22 22 21 21 21 20 20 19 19 19 19 19 20 21 22 23 24 24 24 25 25 26 26 26 26 26 26 25 25 25 25 24 24 24 24 24 24 24 23 23 23 22 22 21 21 21 20 20 19 19 19 18 18 18 17 17 16 16 16 16 16 16 16 15 15 16 16 16 16 16 17 17 17 18 18
32 32 31 29 28 27 26 25 24 23 23 23 22 22 21 21 20 20 20 19 19 20 20 21 22 23 23 24 24 25 25 26 26 26 26 26 26 26 26 25 25 25 25 25 25 24 24 24 24 24 23 23 23 22 21 21 20 20 19 19 19 19 19 18 18 18 17 17 17 16 16 16 16 16 16 16 16 16 16 17 17 17 17 18 18 19
33 32 31 29 28 27 26 25 24 24 23 23 22 22 21 21 21 20 20 20 20 20 21 22 22 23 24 24 25 25 26 26 26 27 27 27 26 26 26 25 25 25 25 25 25 25 25 25 24 24 24 23 23 22 21 21 20 20 19 19 19 19 19 19 18 18 18 17 17 17 17 16 16 16 16 16 16 17 17 17 17 18 18 18 19 19
Wind_Direction
233 233 237 242 246 248 248 249 249 248 247 247 248 249 252 256 261 266 270 272 274 276 276 277 277 278 278 279 280 282 283 285 286 287 287 287 287 288 290 291 292 293 293 293 292 292 290 289 287 284 281 280 279 280 282 284 286 288 289 290 290 289 289 289 288 286 284 283 282 279 275 271 266 262 256 247 238 230 225 216 208 204 204 208 214 219
234 235 239 242 244 245 245 246 246 246 246 246 246 249 252 258 262 266 269 271 273 274 275 275 275 276 277 278 279 281 282 283 284 285 285 285 285 286 287 289 290 290 290 290 290 290 289 289 287 285 283 282 281 282 283 284 285 286 287 287 287 286 286 285 284 283 281 279 276 272 266 260 256 253 248 241 235 229 224 218 213 210 210 213 218 223
235 237 239 240 241 242 242 243 243 244 244 244 245 249 254 260 263 265 267 269 271 272 273 274 274 275 276 277 278 279 281 282 282 282 282 282 283 284 285 286 287 287 287 287 288 288 288 288 287 285 284 283 282 282 283 283 283 284 284 284 283 283 283 282 281 280 278 275 270 264 257 251 247 243 240 235 231 227 223 219 216 214 215 218 221 226
234 237 237 238 239 240 240 240 241 241 241 242 245 250 256 260 262 264 265 267 269 270 271 272 273 274 275 276 277 279 279 280 280 280 280 280 281 282 283 284 284 284 285 285 286 287 288 287 286 285 284 283 283 282 282 282 282 281 281 280 280 280 279 279 278 276 273 270 264 257 250 244 238 235 233 230 228 226 223 220 218 218 220 222 225 229
234 236 237 238 239 240 239 239 238 238 239 242 246 251 256 259 261 262 264 265 267 268 269 270 271 273 274 275 276 277 278 279 279 278 278 278 279 279 280 281 282 282 283 284 285 286 287 286 285 284 284 283 282 282 281 280 279 278 278 278 277 277 276 275 274 271 268 264 257 250 243 236 232 229 228 228 227 226 224 222 221 221 223 226 228 232
236 238 241 243 243 241 238 236 235 236 238 242 247 251 254 257 259 260 262 264 265 266 267 268 270 271 273 274 275 276 277 277 277 277 277 277 277 278 278 279 280 280 281 283 284 285 286 285 284 283 283 282 281 280 278 277 276 275 275 275 275 274 273 272 270 267 262 257 250 243 237 231 228 226 226 227 227 226 224 223 223 225 227 229 232 235
237 241 245 246 244 241 237 234 234 235 238 242 246 250 253 255 257 259 261 262 263 264 265 267 268 270 271 272 274 275 276 276 276 276 276 276 276 276 276 277 278 279 281 282 283 284 284 283 283 282 282 280 279 277 276 274 273 272 272 272 272 271 270 268 265 261 256 250 243 237 231 227 225 224 224 225 225 225 224 224 225 228 230 232 235 238
238 243 247 246 242 238 234 233 232 234 237 241 245 248 251 254 256 258 259 260 261 262 264 266 267 269 270 271 273 274 275 275 275 275 275 275 274 274 275 275 276 278 279 281 282 282 282 281 281 280 280 278 276 274 272 271 270 269 269 269 269 268 266 264 260 256 250 243 237 231 227 225 223 222 223 223 224 225 225 225 227 230 233 236 238 241
239 244 245 243 239 235 232 231 231 233 235 239 243 247 250 253 256 257 259 260 261 262 263 265 266 268 269 271 272 274 274 275 275 274 274 274 273 273 273 274 275 276 278 279 279 280 280 280 279 279 278 275 273 271 269 268 267 266 266 266 265 264 262 259 255 250 243 236 231 227 224 222 221 221 221 221 223 224 225 226 229 232 235 238 240 242
240 243 242 239 235 232 230 230 230 232 235 239 242 246 249 252 254 256 258 259 260 262 263 264 266 268 269 271 272 273 274 274 274 274 273 272 272 272 272 273 274 275 276 277 277 278 278 278 278 277 275 273 270 267 265 264 264 263 262 261 260 259 257 254 250 244 238 232 227 224 222 220 219 219 219 220 222 223 225 227 230 233 236 238 240 242
240 241 238 236 233 231 228 228 229 232 235 239 242 245 248 251 253 256 257 259 260 262 263 265 266 268 270 271 272 272 273 273 273 273 272 271 271 271 271 271 272 274 274 275 276 276 276 276 276 275 273 270 267 265 263 262 261 260 258 257 256 254 252 249 244 239 233 228 224 222 220 219 218 218 219 220 222 224 226 228 231 233 236 238 240 241
239 237 235 234 233 231 228 228 229 232 236 239 243 246 248 251 253 255 256 258 260 262 264 266 267 269 270 271 272 272 272 272 272 272 271 270 270 269 270 270 271 272 273 274 274 275 275 275 274 272 270 267 264 262 261 260 258 257 254 252 251 250 247 244 239 234 230 225 222 220 219 218 217 218 219 221 223 225 227 229 231 234 236 238 239 239
235 233 233 235 235 233 230 229 230 232 236 239 243 246 248 250 252 253 256 258 261 263 265 267 269 270 270 271 272 272 272 272 271 271 270 269 269 268 268 268 269 270 272 272 273 274 274 273 272 270 267 264 262 260 258 257 256 254 251 249 247 246 244 240 235 231 226 222 220 219 218 217 217 218 220 222 224 225 228 229 232 234 236 237 238 238
232 231 234 237 237 234 232 230 231 234 237 240 242 245 246 248 251 253 256 259 262 264 266 267 269 270 271 272 272 272 272 271 270 269 269 268 267 267 267 267 268 269 270 271 272 272 272 271 270 267 264 261 259 257 256 255 253 251 249 246 244 243 240 236 231 227 223 220 218 217 217 217 218 219 221 223 224 226 228 230 232 234 236 237 238 238
231 234 238 240 238 235 232 231 232 234 236 238 240 242 245 248 251 255 258 260 262 264 266 267 268 270 271 272 273 273 272 271 270 269 267 266 265 265 265 266 267 268 269 270 271 271 270 269 267 265 261 258 256 254 253 252 250 248 246 243 242 240 237 233 228 224 220 218 217 216 216 217 218 220 221 223 225 226 228 230 232 234 235 237 238 239
234 239 242 242 238 234 232 231 232 234 235 236 238 241 245 249 252 256 259 261 263 265 266 267 269 270 271 273 273 273 273 272 270 268 266 264 263 263 263 264 265 267 268 269 269 269 268 267 264 262 259 256 253 252 250 249 248 245 243 241 239 237 234 230 225 221 218 216 215 215 216 217 218 220 222 224 226 227 228 230 232 234 236 238 239 240
238 243 245 241 236 233 231 231 232 233 234 236 239 243 246 250 254 257 259 262 264 266 267 268 269 271 272 273 273 273 273 272 269 267 265 263 262 262 262 263 264 265 267 267 268 267 266 264 262 259 256 253 251 250 248 247 245 243 240 239 237 235 231 226 222 219 216 215 215 215 216 217 219 220 223 224 226 227 229 230 232 234 236 238 241 242
240 244 244 239 235 232 232 232 233 235 237 239 242 246 249 252 255 258 260 263 265 267 269 270 271 272 272 273 274 273 272 270 268 266 264 262 261 261 261 262 263 264 265 265 265 265 263 261 259 256 253 251 249 248 246 245 242 240 238 236 234 231 227 223 219 217 215 214 214 215 216 217 219 221 223 225 226 227 228 230 232 235 237 239 242 244
240 241 239 235 233 233 233 234 236 238 240 243 246 249 252 254 257 259 261 263 266 268 269 270 272 272 273 274 274 273 271 269 266 264 263 261 260 260 260 261 261 262 263 263 263 262 261 258 256 253 251 249 247 246 244 242 240 238 236 234 231 228 224 220 217 215 213 213 214 215 216 217 219 221 223 225 226 227 229 230 233 235 237 240 243 245
237 236 234 233 234 235 236 238 240 242 245 247 250 252 254 257 259 261 263 265 266 268 269 271 272 273 274 274 273 272 270 268 266 264 262 261 259 259 259 259 259 260 261 261 260 259 258 256 253 251 248 246 245 244 242 240 238 236 234 231 228 224 220 217 215 213 213 213 214 215 216 217 219 221 223 225 226 227 229 231 233 235 238 240 243 245
234 233 232 234 236 238 240 242 244 247 249 251 253 255 257 259 261 263 264 265 267 268 270 271 272 273 274 274 273 272 270 267 265 263 262 260 258 258 257 257 257 258 258 258 258 257 255 253 250 248 246 244 243 242 240 238 236 234 231 228 224 221 217 215 214 213 212 213 214 214 216 217 219 221 223 225 226 228 229 231 233 236 238 240 243 245
232 232 234 236 239 242 244 245 247 249 251 253 255 257 260 261 263 264 265 266 267 269 270 271 272 273 273 273 272 271 269 267 265 263 261 259 257 256 256 255 255 255 255 255 255 254 252 250 248 246 244 242 241 240 238 236 233 231 228 225 221 218 216 214 213 212 212 213 214 214 215 217 219 221 223 225 227 229 230 232 234 236 238 241 243 245
231 233 236 239 243 245 246 248 249 251 253 255 257 259 261 262 264 265 266 267 268 269 270 271 272 272 272 272 271 270 268 267 265 263 261 258 256 254 253 253 252 252 252 252 252 251 249 247 246 244 242 241 239 238 236 233 231 228 225 221 218 216 214 213 212 212 212 213 214 215 216 217 219 221 224 226 228 230 231 233 235 237 239 241 243 245
233 236 239 242 245 247 248 249 251 252 254 256 258 260 262 263 264 266 267 268 269 270 271 271 271 271 271 270 270 269 268 266 265 263 260 257 254 252 251 250 250 250 250 250 250 249 247 245 243 242 241 239 238 236 233 231 228 225 222 219 216 215 213 213 212 212 212 213 214 215 216 218 220 222 225 227 229 231 232 234 236 237 239 241 243 245
236 239 242 245 247 249 250 251 252 254 256 258 260 262 263 264 266 267 268 269 270 271 271 270 270 270 270 270 269 268 267 266 264 261 259 255 252 249 248 247 247 247 247 248 247 247 245 242 241 240 239 238 236 234 231 228 225 222 219 216 215 214 213 213 213 212 213 214 215 215 216 218 220 223 226 228 230 232 233 235 236 238 240 242 243 245
241 243 245 247 249 250 251 253 254 256 258 260 262 263 265 266 267 268 269 270 270 271 270 270 269 269 269 269 268 267 265 264 262 259 257 253 249 246 245 245 245 245 245 245 245 244 243 241 239 238 237 236 234 231 228 225 222 219 216 215 214 213 213 213 213 213 214 214 215 216 217 219 221 224 227 229 231 233 234 235 237 239 240 242 243 245
243 245 247 249 251 252 253 254 256 258 260 262 264 265 266 268 269 270 270 271 271 270 270 269 268 268 268 267 266 264 263 261 259 257 254 251 247 244 243 243 243 243 243 243 243 242 241 239 237 236 235 234 232 229 225 222 219 217 215 213 213 213 213 213 213 214 214 215 216 216 218 220 222 225 227 230 231 233 235 236 238 239 241 242 244 245
244 246 248 250 252 253 255 257 258 260 262 264 265 266 267 269 270 271 271 271 270 269 269 268 268 267 266 265 263 262 260 258 256 254 252 249 245 242 241 241 241 242 242 242 241 240 238 237 236 234 233 232 229 225 222 219 216 215 213 213 213 213 213 213 214 214 215 216 216 217 219 221 223 226 228 230 232 233 235 237 238 240 241 243 245 246
245 247 249 251 253 255 257 259 260 262 264 265 266 267 268 269 270 270 270 270 269 269 269 268 268 267 265 263 261 259 257 255 254 252 250 246 243 241 240 240 240 240 241 240 239 238 236 235 234 233 231 229 226 222 219 216 214 213 212 212 212 213 213 213 214 214 215 216 217 218 219 222 224 226 228 230 232 233 235 237 239 240 242 244 245 247
245 247 250 252 254 256 258 260 262 263 264 265 266 267 268 268 269 269 269 269 269 269 269 268 267 265 263 261 258 256 255 254 252 251 248 244 241 240 239 239 239 239 239 239 237 235 234 233 233 231 229 226 222 219 216 214 212 212 211 211 212 212 213 213 214 215 216 216 217 219 220 223 225 227 229 231 232 234 236 237 239 241 243 244 246 248
246 248 251 253 255 257 259 261 262 263 265 265 266 267 267 268 268 268 269 269 269 268 268 267 266 264 261 259 257 255 253 251 250 248 245 242 239 238 237 237 237 238 237 236 235 233 232 231 230 229 226 222 219 215 213 212 211 211 210 211 211 211 212 213 214 215 216 217 218 219 221 223 226 228 230 232 233 235 236 238 240 242 243 245 247 248
247 249 252 254 256 257 259 261 262 263 264 265 266 266 267 268 268 268 268 269 268 268 267 267 265 262 259 257 254 252 249 247 245 244 242 239 237 236 235 235 235 235 235 234 233 231 229 228 227 226 223 219 215 213 211 210 210 210 210 210 211 211 212 213 214 215 216 217 219 220 222 224 227 229 231 233 234 236 238 239 241 243 244 246 247 248
248 251 253 255 256 258 259 260 262 263 264 265 266 266 267 268 268 268 268 268 268 268 267 266 263 260 257 254 251 247 244 242 241 240 239 237 235 234 233 233 234 233 233 232 231 229 227 225 224 222 219 215 212 210 209 209 209 210 210 210 211 211 212 213 214 215 217 218 219 221 223 225 227 229 231 233 235 237 238 240 242 243 245 246 247 248
249 251 253 255 256 258 259 260 262 263 264 265 266 267 268 268 269 269 269 269 269 268 267 265 261 257 253 250 246 243 241 240 239 239 237 236 234 233 232 232 232 232 231 230 228 226 224 223 221 219 215 212 210 209 208 209 209 210 210 210 211 211 212 213 214 216 217 219 220 222 224 226 228 230 232 234 235 237 239 240 242 243 244 246 246 247
250 252 254 255 256 258 259 260 262 263 264 265 266 267 268 269 269 269 269 270 269 269 267 263 258 253 249 245 242 240 239 238 238 237 236 234 233 232 232 231 231 230 229 227 225 223 221 219 218 215 212 209 208 208 208 208 209 210 210 211 211 212 213 214 215 216 218 219 221 223 225 226 228 230 232 233 235 237 238 240 241 242 243 244 245 246
250 252 254 255 256 258 259 260 261 262 264 265 266 267 268 269 270 270 270 270 270 269 266 262 256 250 245 242 239 237 237 237 237 236 234 233 232 231 231 230 229 228 226 224 222 219 217 216 214 212 209 207 207 207 208 209 209 210 211 211 212 213 214 215 216 217 218 220 221 223 225 227 229 230 232 233 235 236 237 239 240 241 242 243 244 245
250 252 253 255 256 257 259 260 261 262 263 265 266 267 268 269 270 271 271 271 271 269 265 260 253 247 242 239 237 236 236 236 236 235 233 232 231 230 229 228 228 226 223 221 218 216 214 213 211 209 207 206 206 207 208 209 210 210 211 212 213 214 215 216 216 217 218 220 222 224 226 227 229 230 232 233 234 235 236 237 239 240 241 242 243 243
250 252 253 255 256 257 259 260 261 262 263 265 266 268 269 270 271 271 272 272 271 268 263 257 250 244 240 237 235 235 235 235 235 234 233 232 231 229 228 227 225 223 220 217 214 212 211 209 208 207 205 205 206 207 208 209 210 210 212 213 214 215 215 216 217 218 219 221 223 225 226 228 229 230 231 232 233 234 235 236 238 239 240 241 242 242
250 252 253 254 256 257 258 259 260 262 263 265 266 268 269 270 271 272 272 272 270 266 260 253 247 242 238 236 235 234 234 233 233 232 231 230 229 228 226 224 222 220 217 214 211 209 208 207 206 205 205 205 205 207 209 209 210 211 212 213 214 215 216 217 218 219 220 222 223 225 226 228 229 229 230 231 232 233 234 236 237 238 239 239 240 242
250 251 253 254 255 256 257 258 260 261 263 265 266 268 270 271 271 272 272 271 268 263 257 250 244 240 237 236 235 234 233 232 231 230 229 228 227 226 223 221 218 216 213 211 208 206 205 205 205 205 205 205 206 207 209 209 211 212 213 214 215 216 217 218 218 220 221 222 224 225 226 227 227 228 229 230 231 232 234 235 236 237 238 239 239 241
249 250 251 253 254 255 257 258 259 261 263 265 267 269 270 271 271 271 270 268 265 260 254 247 242 239 236 235 234 233 232 231 230 229 228 227 225 223 220 217 214 212 209 207 206 205 204 204 204 205 206 206 207 208 209 210 211 212 213 214 215 216 218 219 219 220 222 222 223 224 225 226 227 228 229 230 231 233 233 234 235 236 237 238 239 240
247 249 250 252 253 255 256 257 259 260 262 265 267 269 270 270 270 269 268 266 263 258 252 246 241 238 236 234 234 233 232 230 229 228 227 225 223 220 216 213 210 208 206 205 204 204 204 204 205 206 207 207 208 209 210 211 212 213 213 214 216 217 218 219 220 220 221 221 222 223 224 225 226 228 229 230 232 233 234 235 235 236 237 238 239 240
246 248 249 251 252 254 255 257 258 260 262 265 267 269 269 269 268 267 266 264 260 255 250 245 240 237 235 234 233 232 231 230 228 227 225 223 220 217 213 209 206 205 204 203 203 204 205 205 206 206 207 208 209 209 210 211 212 213 214 216 217 218 218 219 220 220 220 220 221 222 222 224 226 227 229 231 232 233 235 236 236 237 238 238 239 241
245 246 248 250 251 253 254 256 258 260 262 264 266 268 268 267 267 266 264 261 258 253 248 244 240 237 235 234 233 232 230 229 227 225 223 220 217 213 209 206 203 202 202 203 203 204 205 206 207 207 208 209 209 210 211 212 213 214 215 216 217 217 218 218 219 219 219 219 220 221 222 224 226 228 230 232 233 235 236 236 237 238 239 240 241 242
244 246 247 249 250 252 254 256 257 259 261 263 265 267 267 266 265 264 261 258 255 251 247 243 240 237 235 234 232 231 230 228 225 223 220 217 214 210 206 203 201 201 202 203 204 205 206 206 207 208 209 209 210 210 211 212 213 214 216 217 217 217 217 217 217 217 217 219 220 221 223 225 227 229 231 233 235 236 237 238 239 240 241 242 243 244
244 245 246 248 249 251 253 254 256 258 260 263 265 266 266 265 263 261 258 255 252 248 245 242 239 236 235 233 232 230 228 226 223 220 217 214 210 207 204 202 201 201 202 204 205 206 207 207 208 208 209 210 210 211 212 213 214 215 216 216 216 216 216 216 216 216 217 219 221 223 225 227 229 231 233 235 237 238 239 240 241 241 242 244 245 246
244 245 246 247 248 249 251 253 255 257 260 262 265 265 265 263 261 258 255 252 248 245 242 240 238 235 234 232 230 228 226 223 220 216 213 211 208 205 203 202 202 202 204 205 206 207 208 208 209 209 209 210 210 211 212 213 214 215 216 216 216 215 215 215 216 217 218 220 223 226 228 230 232 234 236 238 239 240 242 242 243 244 245 246 247 249
243 244 245 246 247 248 250 252 254 256 259 262 263 264 263 261 258 255 251 248 245 243 240 238 236 234 232 230 228 226 223 220 216 213 210 208 206 205 203 203 203 204 205 207 208 208 209 209 210 210 211 211 211 211 212 213 214 215 215 215 215 215 215 216 217 219 221 223 226 229 231 233 235 237 238 240 242 243 244 245 246 247 248 249 250 252
242 243 244 245 246 247 249 251 253 255 258 260 262 263 262 260 256 252 248 245 242 240 238 236 234 233 231 228 226 223 220 217 214 211 208 207 206 205 204 204 205 206 207 208 208 209 209 209 210 210 211 211 212 212 212 213 214 214 215 215 215 215 216 218 219 222 224 226 229 232 234 236 237 239 241 242 244 245 246 247 248 250 251 252 254 255
242 243 244 245 246 246 248 250 252 254 256 259 261 262 261 258 254 250 245 242 239 237 236 234 233 231 229 226 224 221 218 215 212 209 207 207 206 206 206 206 207 208 208 208 209 209 209 209 210 211 211 212 212 212 212 212 213 213 214 215 216 217 219 221 223 225 227 229 232 234 236 238 239 241 243 244 245 247 248 250 251 252 254 255 257 258
241 243 244 245 245 246 247 248 250 252 255 257 259 260 260 257 253 248 243 239 236 235 234 232 231 229 227 224 222 219 216 213 210 209 208 208 208 207 208 208 209 210 209 209 210 210 210 210 210 210 211 211 212 212 212 212 212 213 213 215 218 220 222 225 227 229 230 232 234 236 238 239 241 242 244 245 246 248 250 251 253 254 256 258 259 260
Height
3088 3089 3091 3091 3092 3093 3093 3094 3095 3095 3096 3097 3097 3098 3098 3099 3099 3099 3099 3099 3099 3099 3099 3099 3099 3098 3098 3099 3099 3099 3099 3099 3099 3099 3098 3097 3097 3097 3097 3097 3097 3097 3097 3097 3097 3097 3096 3096 3096 3095 3095 3095 3095 3095 3095 3095 3094 3094 3094 3094 3093 3093 3092 3092 3092 3092 3092 3092 3092 3092 3092 3092 3092 3092 3092 3092 3093 3093 3094 3094 3094 3095 3095 3095 3096 3096
3085 3087 3088 3089 3089 3090 3090 3092 3092 3093 3093 3094 3095 3096 3096 3096 3097 3097 3097 3097 3097 3097 3097 3097 3097 3097 3097 3097 3097 3097 3097 3097 3097 3097 3097 3096 3096 3095 3095 3095 3095 3096 3096 3095 3095 3095 3095 3094 3094 3094 3094 3093 3093 3093 3093 3093 3093 3092 3092 3092 3092 3092 3091 3091 3091 3090 3090 3091 3091 3091 3091 3091 3091 3091 3092 3092 3092 3093 3093 3093 3094 3094 3094 3095 3095 3095
3082 3084 3085 3086 3087 3087 3088 3089 3090 3091 3091 3092 3093 3093 3094 3094 3094 3095 3095 3095 3095 3095 3094 3094 3095 3095 3095 3095 3095 3095 3095 3096 3096 3095 3095 3094 3094 3093 3093 3093 3094 3094 3094 3094 3094 3093 3093 3093 3092 3092 3092 3092 3092 3092 3092 3091 3091 3091 3091 3091 3090 3090 3090 3090 3089 3089 3089 3089 3089 3089 3090 3090 3090 3090 3091 3091 3092 3092 3092 3093 3093 3093 3094 3094 3095 3095
3080 3081 3082 3083 3084 3085 3086 3087 3087 3088 3089 3090 3090 3091 3091 3092 3092 3092 3092 3092 3092 3092 3092 3092 3092 3092 3093 3093 3093 3093 3093 3094 3094 3094 3093 3093 3092 3092 3092 3092 3092 3092 3092 3092 3092 3092 3092 3091 3091 3091 3090 3090 3090 3090 3090 3090 3090 3089 3089 3089 3089 3089 3088 3088 3088 3088 3088 3088 3088 3088 3089 3089 3089 3090 3090 3091 3091 3091 3092 3092 3092 3093 3093 3093 3094 3094
3077 3078 3079 3080 3081 3082 3083 3084 3085 3086 3087 3087 3088 3088 3089 3089 3089 3090 3090 3090 3090 3090 3090 3090 3091 3091 3091 3091 3091 3092 3092 3092 3092 3092 3092 3091 3091 3090 3090 3090 3090 3090 3090 3090 3090 3090 3090 3090 3089 3089 3089 3089 3088 3088 3088 3088 3088 3088 3088 3087 3087 3087 3087 3087 3087 3087 3087 3087 3087 3087 3087 3088 3088 3089 3089 3090 3090 3091 3091 3092 3092 3092 3092 3093 3093 3094
3074 3076 3077 3077 3078 3079 3081 3082 3082 3083 3084 3085 3086 3086 3086 3087 3087 3087 3087 3088 3088 3088 3088 3088 3088 3089 3089 3089 3089 3090 3090 3090 3090 3090 3090 3089 3089 3089 3088 3088 3088 3088 3088 3089 3089 3088 3088 3088 3087 3087 3087 3087 3087 3087 3087 3087 3087 3087 3086 3086 3086 3086 3086 3086 3086 3086 3086 3086 3086 3086 3087 3087 3087 3088 3088 3089 3089 3090 3090 3091 3091 3092 3092 3092 3092 3093
3072 3073 3074 3075 3076 3077 3078 3079 3080 3081 3082 3082 3083 3083 3084 3084 3084 3085 3085 3085 3086 3086 3086 3086 3087 3087 3087 3087 3087 3088 3088 3088 3088 3088 3088 3087 3087 3087 3087 3087 3086 3087 3087 3087 3087 3087 3086 3086 3086 3086 3085 3085 3085 3085 3085 3085 3085 3085 3085 3085 3085 3085 3085 3084 3084 3084 3084 3085 3085 3085 3086 3086 3087 3087 3088 3088 3089 3089 3090 3090 3090 3091 3091 3092 3092 3092
3069 3070 3072 3072 3073 3075 3076 3077 3077 3079 3079 3080 3081 3081 3081 3082 3082 3082 3082 3083 3083 3084 3084 3084 3085 3085 3085 3085 3086 3086 3086 3086 3086 3086 3086 3086 3086 3085 3085 3085 3084 3085 3085 3085 3085 3085 3085 3084 3084 3084 3084 3084 3084 3084 3084 3084 3083 3083 3083 3083 3083 3083 3083 3083 3083 3083 3083 3084 3084 3084 3085 3085 3086 3087 3087 3087 3088 3088 3089 3089 3090 3090 3090 3091 3091 3092
3066 3068 3069 3070 3071 3072 3073 3074 3075 3076 3077 3077 3078 3078 3079 3079 3079 3080 3080 3081 3081 3082 3082 3082 3082 3083 3083 3083 3083 3084 3084 3084 3084 3084 3084 3084 3083 3083 3083 3083 3082 3082 3083 3083 3083 3083 3083 3082 3082 3082 3082 3082 3082 3082 3082 3082 3082 3082 3082 3082 3082 3082 3082 3082 3082 3082 3082 3083 3083 3084 3084 3085 3085 3086 3086 3087 3087 3087 3088 3088 3089 3089 3090 3090 3090 3091
3064 3065 3067 3068 3069 3070 3071 3072 3073 3074 3074 3075 3076 3076 3076 3076 3077 3077 3077 3078 3078 3079 3079 3080 3080 3081 3081 3081 3082 3082 3082 3082 3082 3082 3082 3082 3082 3081 3081 3081 3081 3081 3081 3081 3081 3081 3081 3081 3081 3080 3080 3080 3081 3081 3081 3081 3081 3081 3081 3081 3081 3081 3081 3081 3081 3081 3081 3082 3082 3083 3083 3084 3084 3085 3085 3086 3086 3087 3087 3088 3088 3088 3089 3089 3090 3090
3062 3063 3065 3066 3067 3067 3068 3069 3070 3071 3072 3072 3073 3074 3074 3074 3074 3075 3075 3076 3076 3077 3077 3077 3078 3078 3079 3079 3079 3080 3080 3080 3080 3080 3080 3080 3080 3079 3079 3079 3079 3079 3079 3079 3079 3079 3079 3079 3079 3079 3079 3079 3079 3079 3079 3079 3079 3079 3079 3079 3080 3080 3080 3080 3080 3080 3080 3081 3081 3082 3082 3083 3083 3084 3085 3085 3086 3086 3087 3087 3087 3088 3088 3088 3089 3089
3059 3061 3062 3063 3064 3065 3066 3067 3067 3069 3069 3070 3071 3071 3072 3072 3072 3072 3072 3073 3073 3074 3074 3075 3076 3076 3076 3077 3077 3077 3078 3078 3078 3078 3077 3077 3077 3077 3077 3077 3077 3077 3077 3077 3077 3077 3077 3077 3077 3077 3077 3077 3077 3077 3077 3077 3077 3078 3078 3078 3078 3078 3078 3078 3079 3079 3079 3080 3081 3081 3082 3082 3083 3083 3084 3084 3085 3085 3086 3086 3087 3087 3087 3088 3088 3088
3057 3058 3060 3061 3061 3062 3063 3064 3065 3066 3067 3068 3068 3069 3069 3070 3070 3070 3070 3070 3071 3072 3072 3072 3073 3073 3074 3074 3075 3075 3076 3076 3076 3076 3076 3075 3075 3075 3075 3074 3074 3075 3075 3075 3075 3075 3075 3075 3075 3075 3075 3075 3075 3076 3076 3076 3076 3076 3077 3077 3077 3077 3077 3077 3077 3078 3078 3079 3080 3080 3081 3081 3082 3082 3083 3083 3084 3084 3085 3085 3086 3086 3087 3087 3087 3087
3055 3056 3057 3058 3058 3060 3061 3062 3063 3064 3065 3066 3066 3067 3067 3067 3067 3067 3068 3068 3069 3069 3070 3070 3070 3071 3071 3072 3072 3073 3073 3073 3074 3074 3073 3073 3073 3073 3072 3072 3072 3072 3073 3073 3073 3073 3073 3073 3073 3073 3073 3074 3074 3074 3074 3074 3074 3075 3075 3075 3076 3076 3076 3076 3077 3077 3077 3078 3079 3079 3080 3080 3081 3081 3082 3082 3083 3083 3084 3084 3085 3085 3086 3086 3086 3087
3052 3053 3054 3055 3056 3057 3059 3060 3061 3062 3063 3064 3064 3064 3064 3064 3065 3065 3066 3066 3066 3067 3067 3067 3068 3068 3069 3069 3070 3070 3071 3071 3072 3072 3071 3071 3071 3071 3070 3070 3070 3070 3071 3071 3071 3071 3072 3072 3072 3072 3072 3072 3072 3072 3072 3073 3073 3073 3073 3074 3074 3074 3075 3075 3076 3076 3077 3077 3077 3078 3079 3079 3080 3080 3081 3082 3082 3082 3083 3083 3084 3084 3085 3085 3085 3086
3050 3051 3051 3052 3053 3055 3057 3058 3059 3060 3061 3061 3061 3062 3062 3062 3062 3063 3063 3063 3064 3064 3065 3065 3066 3066 3066 3067 3067 3068 3068 3068 3069 3069 3069 3069 3068 3068 3068 3068 3068 3068 3069 3069 3069 3069 3069 3070 3070 3070 3070 3070 3070 3071 3071 3071 3071 3072 3072 3072 3073 3073 3073 3074 3074 3075 3075 3076 3077 3077 3078 3078 3079 3079 3080 3081 3081 3082 3082 3082 3083 3083 3084 3084 3084 3085
3048 3048 3048 3050 3051 3053 3055 3056 3057 3057 3058 3058 3059 3059 3060 3060 3060 3061 3061 3061 3061 3062 3062 3062 3063 3063 3064 3064 3065 3066 3066 3066 3066 3066 3066 3066 3066 3066 3066 3066 3066 3067 3067 3067 3067 3067 3067 3067 3067 3068 3068 3068 3069 3069 3069 3069 3070 3070 3071 3071 3072 3072 3072 3073 3073 3074 3074 3075 3075 3076 3077 3077 3078 3078 3079 3080 3080 3081 3081 3082 3082 3082 3083 3083 3083 3084
3045 3045 3047 3048 3049 3051 3052 3053 3054 3055 3055 3056 3057 3057 3057 3057 3058 3058 3058 3059 3059 3059 3059 3060 3060 3060 3061 3062 3062 3063 3064 3063 3063 3063 3063 3063 3064 3064 3064 3064 3064 3064 3065 3065 3065 3065 3066 3066 3066 3066 3066 3067 3067 3067 3067 3068 3068 3068 3069 3069 3070 3071 3071 3072 3072 3072 3073 3074 3074 3075 3076 3077 3077 3077 3078 3079 3079 3080 3080 3081 3081 3082 3082 3082 3082 3083
3042 3043 3045 3047 3048 3049 3050 3051 3052 3052 3053 3053 3054 3054 3055 3055 3055 3056 3056 3056 3057 3057 3057 3057 3057 3058 3058 3059 3060 3060 3061 3061 3060 3060 3061 3061 3061 3062 3062 3062 3062 3062 3063 3063 3063 3063 3063 3064 3064 3064 3064 3065 3065 3066 3066 3066 3067 3067 3067 3068 3069 3069 3070 3070 3071 3072 3072 3073 3073 3074 3075 3075 3076 3077 3077 3078 3078 3079 3079 3080 3080 3081 3081 3081 3082 3082
3040 3042 3043 3045 3046 3047 3048 3048 3049 3050 3050 3051 3051 3052 3052 3052 3053 3053 3053 3054 3054 3054 3054 3054 3055 3055 3056 3056 3057 3057 3058 3058 3057 3057 3058 3058 3059 3059 3059 3060 3060 3061 3061 3061 3061 3061 3062 3062 3062 3062 3062 3063 3063 3064 3064 3065 3065 3065 3066 3067 3067 3068 3068 3069 3070 3070 3071 3072 3072 3073 3074 3074 3075 3076 3076 3077 3077 3078 3078 3079 3079 3080 3080 3080 3081 3081
3039 3040 3041 3042 3043 3044 3045 3046 3047 3047 3048 3048 3049 3049 3049 3050 3050 3051 3051 3052 3052 3052 3052 3052 3052 3052 3052 3053 3054 3054 3055 3055 3055 3055 3055 3056 3057 3057 3057 3057 3058 3058 3059 3059 3059 3059 3059 3060 3060 3060 3061 3061 3062 3062 3062 3063 3063 3064 3064 3065 3066 3067 3067 3068 3068 3069 3070 3071 3071 3072 3073 3073 3074 3074 3075 3076 3076 3077 3077 3078 3078 3078 3079 3079 3080 3080
3037 3038 3039 3040 3041 3042 3042 3043 3044 3045 3045 3046 3046 3047 3047 3047 3047 3048 3048 3049 3049 3049 3049 3050 3050 3050 3050 3050 3051 3051 3052 3052 3052 3052 3053 3053 3054 3055 3055 3056 3056 3056 3057 3057 3057 3057 3057 3057 3058 3058 3059 3059 3060 3060 3061 3061 3062 3062 3063 3064 3064 3065 3066 3067 3067 3068 3069 3069 3070 3071 3072 3072 3073 3073 3074 3075 3075 3076 3076 3077 3077 3077 3078 3078 3079 3079
3034 3035 3036 3037 3038 3039 3040 3041 3042 3042 3043 3043 3044 3044 3044 3045 3045 3045 3046 3046 3046 3047 3047 3047 3047 3047 3047 3047 3048 3048 3048 3049 3049 3049 3050 3051 3052 3052 3053 3053 3054 3054 3054 3055 3055 3055 3055 3056 3056 3056 3057 3057 3058 3058 3059 3060 3060 3061 3062 3062 3063 3064 3064 3065 3066 3067 3067 3068 3069 3070 3070 3071 3072 3072 3073 3073 3074 3075 3075 3076 3076 3077 3077 3077 3078 3078
3032 3033 3034 3035 3036 3037 3038 3039 3039 3040 3040 3041 3041 3042 3042 3042 3042 3043 3043 3043 3044 3044 3044 3044 3044 3044 3044 3045 3045 3045 3046 3046 3046 3047 3047 3049 3050 3050 3051 3051 3051 3052 3052 3052 3052 3053 3053 3053 3054 3054 3055 3056 3056 3057 3057 3058 3058 3059 3060 3061 3062 3062 3063 3064 3065 3066 3066 3067 3068 3068 3069 3070 3070 3071 3072 3072 3073 3074 3074 3075 3075 3076 3076 3077 3077 3077
3029 3030 3031 3032 3033 3034 3035 3036 3037 3037 3038 3038 3038 3039 3039 3039 3040 3040 3041 3041 3041 3042 3042 3042 3042 3042 3042 3042 3042 3042 3043 3043 3044 3044 3045 3046 3047 3047 3048 3049 3049 3049 3050 3050 3050 3051 3051 3052 3052 3052 3053 3054 3054 3055 3056 3056 3057 3058 3058 3059 3060 3061 3062 3063 3063 3064 3065 3066 3067 3067 3068 3068 3069 3070 3071 3071 3072 3072 3073 3074 3074 3074 3075 3075 3076 3076
3027 3028 3029 3030 3031 3032 3033 3034 3034 3035 3036 3036 3036 3036 3037 3037 3037 3037 3038 3038 3038 3038 3038 3038 3039 3039 3039 3039 3039 3040 3040 3041 3041 3042 3042 3043 3044 3045 3046 3046 3047 3047 3047 3048 3048 3049 3049 3050 3050 3051 3051 3052 3052 3053 3054 3055 3055 3056 3057 3058 3059 3060 3061 3062 3062 3063 3064 3065 3065 3066 3067 3067 3068 3069 3069 3070 3071 3071 3072 3072 3073 3073 3074 3074 3075 3075
3024 3026 3027 3027 3028 3029 3030 3031 3032 3032 3033 3033 3033 3033 3034 3034 3034 3035 3035 3035 3035 3035 3035 3035 3036 3036 3036 3037 3037 3037 3037 3038 3038 3039 3040 3041 3042 3042 3043 3044 3044 3045 3045 3046 3046 3047 3047 3048 3048 3049 3049 3050 3051 3052 3052 3053 3054 3055 3056 3057 3057 3058 3059 3060 3061 3062 3062 3063 3064 3065 3065 3066 3067 3068 3068 3069 3070 3070 3071 3071 3072 3072 3072 3073 3073 3074
3022 3023 3024 3025 3026 3027 3028 3028 3029 3030 3030 3031 3031 3031 3031 3032 3032 3032 3032 3032 3032 3032 3032 3032 3033 3033 3033 3034 3034 3034 3034 3035 3036 3037 3037 3038 3039 3040 3041 3042 3042 3042 3043 3043 3044 3045 3045 3046 3046 3047 3047 3048 3049 3050 3051 3052 3052 3053 3054 3055 3056 3057 3058 3059 3060 3061 3061 3062 3063 3063 3064 3065 3066 3067 3067 3068 3068 3069 3070 3070 3071 3071 3072 3072 3072 3072
3020 3021 3022 3023 3024 3024 3025 3026 3027 3027 3027 3028 3028 3028 3029 3029 3029 3029 3029 3029 3029 3029 3029 3030 3030 3030 3031 3031 3031 3031 3032 3032 3033 3034 3035 3036 3037 3037 3038 3039 3039 3040 3041 3041 3042 3042 3043 3044 3044 3045 3046 3047 3047 3048 3049 3050 3051 3052 3053 3054 3055 3056 3057 3057 3058 3059 3060 3061 3062 3062 3063 3064 3064 3065 3066 3067 3067 3068 3068 3069 3069 3070 3070 3071 3071 3071
3018 3019 3020 3021 3021 3022 3022 3023 3024 3024 3025 3025 3026 3026 3026 3027 3027 3027 3026 3026 3026 3027 3027 3027 3027 3028 3028 3028 3028 3028 3029 3030 3031 3032 3032 3033 3034 3035 3036 3037 3037 3038 3038 3039 3039 3040 3041 3042 3042 3043 3044 3045 3046 3047 3047 3048 3049 3050 3052 3052 3053 3054 3055 3056 3057 3058 3059 3060 3060 3061 3062 3062 3063 3064 3065 3065 3066 3067 3067 3068 3068 3068 3069 3069 3070 3070
3016 3017 3017 3018 3019 3019 3020 3021 3021 3022 3022 3022 3023 3023 3023 3024 3024 3024 3024 3024 3024 3024 3024 3024 3025 3025 3025 3025 3025 3026 3027 3028 3029 3029 3030 3031 3032 3033 3034 3034 3035 3035 3036 3037 3037 3038 3039 3040 3040 3041 3042 3043 3044 3045 3046 3047 3048 3049 3050 3051 3052 3053 3054 3055 3056 3057 3057 3058 3059 3060 3060 3061 3062 3062 3063 3064 3065 3065 3066 3066 3067 3067 3067 3068 3068 3069
3013 3014 3015 3016 3017 3017 3018 3018 3019 3019 3020 3020 3020 3020 3021 3021 3021 3021 3021 3021 3021 3021 3021 3021 3022 3022 3022 3022 3022 3023 3025 3025 3026 3027 3027 3028 3029 3030 3031 3032 3032 3033 3034 3034 3035 3036 3037 3038 3038 3039 3040 3042 3042 3043 3044 3045 3047 3047 3049 3050 3051 3052 3053 3054 3054 3055 3056 3057 3057 3058 3059 3060 3061 3061 3062 3063 3063 3064 3064 3065 3066 3066 3066 3067 3067 3067
3011 3012 3012 3013 3014 3015 3015 3016 3016 3017 3017 3017 3017 3017 3017 3018 3018 3018 3018 3018 3018 3018 3018 3018 3019 3019 3019 3019 3020 3021 3022 3022 3023 3024 3025 3026 3027 3028 3029 3029 3030 3031 3032 3032 3033 3034 3035 3036 3037 3037 3038 3040 3041 3042 3043 3044 3045 3046 3047 3048 3049 3050 3051 3052 3053 3054 3055 3056 3056 3057 3058 3058 3059 3060 3061 3061 3062 3062 3063 3064 3064 3064 3065 3065 3066 3066
3008 3009 3010 3011 3012 3012 3013 3013 3014 3014 3014 3014 3014 3015 3015 3015 3015 3015 3015 3015 3015 3016 3016 3016 3016 3016 3016 3017 3017 3018 3019 3020 3021 3022 3022 3023 3024 3025 3026 3027 3028 3028 3029 3030 3031 3032 3033 3034 3035 3036 3037 3038 3039 3041 3042 3043 3044 3045 3046 3047 3048 3049 3050 3051 3052 3052 3053 3054 3055 3056 3057 3057 3058 3059 3059 3060 3061 3061 3062 3062 3062 3063 3063 3063 3064 3064
3006 3007 3007 3008 3009 3010 3010 3011 3011 3011 3012 3012 3012 3012 3012 3012 3012 3012 3012 3012 3012 3013 3013 3013 3013 3013 3014 3014 3015 3016 3016 3017 3018 3019 3020 3022 3022 3023 3024 3025 3026 3027 3027 3028 3029 3030 3031 3032 3033 3034 3035 3037 3038 3039 3040 3041 3042 3044 3045 3046 3047 3048 3049 3049 3050 3051 3052 3053 3053 3054 3055 3056 3057 3057 3058 3058 3059 3060 3060 3061 3061 3062 3062 3062 3062 3063
3003 3004 3005 3006 3007 3007 3007 3008 3008 3008 3009 3009 3009 3009 3009 3009 3010 3010 3010 3010 3010 3010 3010 3010 3011 3011 3011 3012 3012 3013 3014 3015 3016 3017 3018 3019 3020 3021 3022 3023 3024 3025 3025 3027 3027 3028 3029 3030 3031 3032 3034 3035 3036 3037 3039 3040 3041 3042 3043 3044 3045 3046 3047 3048 3049 3050 3051 3051 3052 3053 3054 3054 3055 3056 3057 3057 3058 3058 3059 3059 3060 3060 3060 3061 3061 3061
3001 3002 3002 3003 3004 3004 3005 3005 3005 3006 3006 3006 3006 3007 3007 3007 3007 3007 3007 3007 3007 3007 3007 3007 3008 3008 3009 3010 3010 3011 3012 3013 3014 3015 3016 3017 3018 3019 3020 3021 3022 3023 3023 3024 3026 3027 3027 3028 3030 3031 3032 3034 3035 3036 3037 3039 3040 3041 3042 3043 3044 3045 3046 3047 3047 3048 3049 3050 3051 3052 3052 3053 3054 3054 3055 3056 3056 3057 3057 3058 3058 3058 3059 3059 3060 3060
2998 2999 3000 3001 3001 3002 3002 3002 3002 3003 3003 3003 3003 3004 3004 3004 3004 3005 3005 3005 3005 3005 3005 3005 3006 3006 3007 3007 3008 3009 3010 3011 3012 3013 3015 3015 3016 3017 3018 3019 3020 3021 3022 3023 3023 3024 3026 3027 3028 3030 3031 3033 3034 3035 3036 3037 3038 3040 3041 3042 3043 3044 3045 3045 3046 3047 3048 3049 3049 3050 3051 3052 3052 3053 3054 3054 3055 3055 3056 3056 3057 3057 3057 3058 3058 3059
2996 2997 2997 2998 2998 2999 2999 2999 3000 3000 3000 3001 3001 3001 3002 3002 3002 3002 3002 3002 3002 3002 3002 3003 3003 3004 3005 3005 3006 3007 3008 3009 3011 3012 3013 3013 3014 3016 3017 3017 3018 3019 3020 3021 3022 3023 3024 3026 3027 3028 3030 3031 3032 3033 3035 3036 3037 3038 3039 3040 3042 3042 3043 3044 3045 3046 3046 3047 3048 3049 3049 3050 3051 3052 3052 3053 3053 3054 3054 3055 3055 3056 3056 3057 3057 3057
2993 2994 2994 2995 2996 2996 2996 2997 2997 2997 2998 2998 2998 2999 2999 2999 2999 2999 3000 3000 3000 3000 3000 3001 3001 3002 3002 3003 3004 3005 3007 3008 3009 3010 3011 3012 3012 3013 3015 3016 3017 3017 3018 3019 3020 3022 3023 3024 3026 3027 3028 3030 3031 3032 3033 3034 3036 3037 3038 3039 3040 3041 3042 3042 3043 3044 3045 3046 3047 3047 3048 3049 3049 3050 3051 3051 3052 3052 3053 3053 3054 3054 3055 3055 3055 3056
2990 2991 2992 2992 2993 2993 2994 2994 2994 2995 2995 2995 2996 2996 2997 2997 2997 2997 2997 2997 2997 2997 2998 2998 2999 3000 3001 3002 3002 3004 3005 3006 3007 3008 3009 3010 3011 3012 3012 3013 3015 3016 3017 3018 3019 3020 3022 3023 3024 3025 3027 3028 3029 3031 3032 3033 3034 3035 3037 3037 3038 3039 3040 3041 3042 3043 3043 3044 3045 3046 3047 3047 3048 3049 3049 3050 3050 3051 3052 3052 3052 3053 3053 3053 3054 3054
2987 2988 2989 2989 2990 2991 2991 2991 2992 2992 2992 2993 2993 2994 2994 2994 2994 2994 2995 2995 2995 2996 2996 2997 2997 2998 2999 3000 3001 3002 3003 3004 3005 3006 3007 3008 3009 3010 3011 3012 3013 3014 3015 3017 3017 3019 3020 3021 3023 3024 3025 3027 3028 3029 3030 3032 3033 3034 3035 3036 3037 3038 3039 3040 3041 3041 3042 3043 3044 3044 3045 3046 3047 3047 3048 3048 3049 3049 3050 3050 3051 3051 3052 3052 3052 3053
2984 2985 2986 2987 2987 2988 2988 2988 2989 2989 2990 2991 2991 2991 2992 2992 2992 2992 2992 2992 2993 2993 2994 2994 2995 2996 2997 2998 2999 3000 3001 3002 3003 3004 3005 3006 3007 3008 3009 3010 3011 3012 3014 3015 3016 3017 3019 3020 3021 3022 3024 3025 3027 3028 3029 3030 3031 3032 3033 3034 3035 3036 3037 3038 3039 3040 3041 3042 3042 3043 3044 3044 3045 3046 3046 3047 3047 3048 3048 3049 3049 3050 3050 3051 3051 3051
2982 2982 2983 2984 2985 2985 2985 2986 2986 2987 2987 2988 2988 2989 2989 2989 2989 2990 2990 2990 2991 2991 2992 2992 2993 2994 2995 2996 2997 2998 2999 3000 3002 3002 3003 3004 3005 3006 3007 3008 3010 3011 3012 3014 3015 3016 3017 3019 3020 3021 3022 3024 3025 3026 3027 3029 3030 3031 3032 3033 3034 3035 3036 3037 3038 3038 3039 3040 3041 3042 3042 3043 3043 3044 3045 3045 3046 3046 3047 3047 3047 3048 3048 3049 3049 3050
2979 2980 2981 2981 2982 2982 2982 2983 2984 2984 2985 2985 2986 2986 2986 2987 2987 2987 2987 2988 2988 2989 2990 2990 2991 2992 2993 2994 2996 2997 2997 2999 3000 3001 3002 3002 3003 3005 3006 3007 3008 3010 3011 3012 3013 3015 3016 3017 3018 3020 3021 3022 3024 3025 3026 3027 3028 3029 3030 3032 3033 3034 3035 3035 3036 3037 3038 3039 3039 3040 3041 3041 3042 3042 3043 3044 3044 3045 3045 3046 3046 3047 3047 3047 3048 3048
2976 2977 2978 2978 2979 2979 2980 2980 2981 2982 2982 2982 2983 2983 2984 2984 2984 2985 2985 2986 2986 2987 2988 2988 2989 2991 2992 2993 2994 2995 2996 2997 2998 2999 3000 3001 3002 3003 3004 3006 3007 3008 3009 3011 3012 3013 3015 3016 3017 3018 3019 3021 3022 3023 3025 3026 3027 3028 3029 3030 3031 3032 3033 3034 3035 3036 3037 3037 3038 3038 3039 3040 3040 3041 3042 3042 3043 3043 3043 3044 3044 3045 3045 3046 3046 3046
2973 2974 2975 2975 2976 2976 2977 2977 2978 2979 2979 2980 2980 2981 2981 2982 2982 2982 2983 2983 2984 2985 2986 2987 2988 2989 2990 2991 2992 2993 2994 2995 2996 2997 2998 2999 3001 3002 3003 3004 3006 3007 3008 3009 3010 3012 3013 3014 3016 3017 3018 3019 3021 3022 3023 3024 3025 3027 3028 3029 3030 3031 3032 3032 3033 3034 3035 3036 3036 3037 3037 3038 3039 3039 3040 3040 3041 3042 3042 3042 3042 3043 3043 3044 3044 3044
2970 2971 2972 2972 2973 2973 2974 2975 2976 2976 2977 2977 2977 2978 2978 2979 2979 2980 2981 2981 2982 2983 2984 2985 2986 2987 2988 2989 2990 2991 2992 2993 2994 2995 2997 2998 2999 3000 3002 3003 3004 3005 3007 3008 3009 3010 3012 3013 3014 3015 3017 3018 3019 3020 3022 3023 3024 3025 3026 3027 3028 3029 3030 3031 3032 3033 3033 3034 3035 3035 3036 3037 3037 3037 3038 3038 3039 3039 3040 3040 3041 3041 3042 3042 3042 3042
2967 2967 2968 2969 2970 2971 2972 2972 2973 2974 2974 2974 2975 2975 2976 2976 2977 2977 2978 2979 2980 2981 2982 2983 2984 2985 2986 2987 2988 2989 2990 2992 2992 2994 2995 2996 2997 2999 3000 3002 3003 3004 3005 3006 3007 3009 3010 3011 3012 3014 3015 3017 3018 3019 3020 3021 3022 3024 3025 3026 3027 3028 3029 3030 3031 3031 3032 3033 3033 3034 3034 3035 3035 3036 3036 3037 3037 3037 3038 3038 3039 3039 3039 3040 3040 3040
2964 2964 2965 2966 2967 2968 2969 2970 2970 2971 2971 2972 2972 2973 2973 2974 2974 2975 2976 2977 2978 2979 2980 2981 2982 2983 2984 2985 2987 2987 2989 2990 2991 2992 2993 2994 2996 2997 2998 3000 3001 3002 3003 3005 3006 3007 3008 3010 3011 3012 3013 3015 3016 3017 3019 3020 3021 3022 3023 3025 3026 3027 3027 3028 3029 3030 3031 3031 3032 3032 3032 3033 3033 3034 3034 3035 3035 3035 3036 3036 3037 3037 3037 3038 3038 3038
2960 2961 2962 2963 2964 2965 2966 2967 2967 2968 2968 2969 2970 2970 2971 2971 2972 2973 2974 2975 2976 2977 2978 2979 2980 2981 2982 2983 2985 2986 2987 2988 2989 2991 2992 2993 2994 2996 2997 2998 2999 3000 3002 3003 3004 3006 3007 3008 3010 3011 3012 3013 3015 3016 3017 3018 3020 3021 3022 3023 3024 3025 3026 3027 3027 3028 3029 3029 3030 3031 3031 3032 3032 3032 3032 3033 3033 3033 3034 3034 3035 3035 3036 3036 3036 3036